GW0639 Weather Reports


Display with metric or nautical units.
time (UTC)temp
F
wind
direction
speed
MPH
gust
MPH
rain 1hr
in
rain 24hr
in
rain mn
in
humidity
%
barometer
mb
20260504081517 42 298 0.0 2.0 0.00 0.00 0.00 69 1014.5
20260504044516 35 315 0.0 0.0 0.00 0.00 0.00 85 1014.7
20260504043033 35 315 0.0 0.0 0.00 0.00 0.00 84 1014.7
20260504041534 36 315 0.0 0.0 0.00 0.00 0.00 83 1014.6
20260504040033 36 315 0.0 0.0 0.00 0.00 0.00 83 1014.5
20260504033041 37 315 0.0 0.0 0.00 0.00 0.00 81 1014.4
20260504031525 37 315 0.0 0.0 0.00 0.00 0.00 80 1014.4
20260504030044 38 315 0.0 0.0 0.00 0.00 0.00 77 1014.4
20260504024526 39 315 0.0 0.0 0.00 0.01 0.00 76 1014.4
20260504023025 39 315 0.0 0.0 0.00 0.01 0.00 74 1014.3
20260504021525 40 315 0.0 0.0 0.00 0.01 0.00 72 1014.3
20260504020026 41 315 0.0 0.0 0.00 0.01 0.00 70 1014.2
20260504014525 42 315 0.0 0.0 0.00 0.01 0.00 67 1014.2
20260504013026 42 315 0.0 0.0 0.00 0.01 0.00 66 1014.1
20260504011541 42 315 0.0 0.0 0.00 0.01 0.00 66 1013.9
20260504003043 46 315 0.0 0.0 0.00 0.01 0.00 52 1013.2
20260504001527 48 315 0.0 0.0 0.00 0.01 0.00 47 1013.0
20260504000026 50 315 0.0 0.0 0.00 0.01 0.00 42 1012.8
20260503233027 54 331 0.0 3.0 0.00 0.01 0.00 36 1012.7
20260503231526 54 332 1.0 8.0 0.00 0.01 0.00 34 1012.6
20260503224525 55 328 2.0 9.0 0.00 0.01 0.00 34 1012.5
20260503223028 55 327 3.0 9.0 0.00 0.01 0.00 34 1012.5
20260503221525 56 330 2.0 7.0 0.00 0.01 0.00 36 1012.5
20260503220026 56 332 2.0 9.0 0.00 0.01 0.00 36 1012.6
20260503214540 56 325 2.0 9.0 0.00 0.01 0.00 35 1012.5
20260503213025 56 330 3.0 10.0 0.00 0.01 0.00 36 1012.5
20260503210025 56 343 3.0 9.0 0.00 0.01 0.00 36 1012.4
20260503203025 56 332 3.0 12.0 0.00 0.01 0.00 36 1012.4
20260503201543 55 339 3.0 11.0 0.00 0.01 0.00 37 1012.3
20260503200025 56 337 2.0 11.0 0.00 0.01 0.00 36 1012.3
20260503194526 55 321 4.0 16.0 0.00 0.01 0.00 36 1012.2
20260503193041 54 330 4.0 11.0 0.00 0.01 0.00 37 1012.3
20260503191526 56 326 4.0 14.0 0.00 0.01 0.00 36 1012.2
20260503190028 56 335 3.0 12.0 0.00 0.01 0.00 38 1012.2
20260503184524 55 313 4.0 17.0 0.00 0.01 0.00 37 1012.3
20260503181525 56 325 3.0 12.0 0.00 0.02 0.00 38 1012.1
20260503180024 55 353 3.0 14.0 0.00 0.02 0.00 41 1012.4
20260503174526 55 332 4.0 12.0 0.00 0.03 0.00 39 1012.4
20260503173024 55 331 4.0 14.0 0.00 0.03 0.00 41 1012.2
20260503171526 55 326 4.0 13.0 0.00 0.05 0.00 42 1012.2